Weather History for Camden, SC

Change the Weather History Date:

Wednesday, August 28, 2013

  Actual Average (KSSC) Record (KSSC)
Temperature  
Mean Temperature 79 °F -  
Max Temperature 89 °F 85 °F 96 °F (2001)
Min Temperature 69 °F 67 °F 64 °F (2014)
Cooling Degree Days 14    
Growing Degree Days 29 (Base 50)    
Moisture  
Dew Point 72 °F    
Average Humidity 79    
Maximum Humidity 100    
Minimum Humidity 55    
Precipitation  
Precipitation 0.00 in - - ()
Sea Level Pressure  
Sea Level Pressure 30.00 in    
Wind  
Wind Speed 3 mph (SW)    
Max Wind Speed 9 mph    
Max Gust Speed -    
Visibility 9 miles    
Events      
Averages and records for this station are not official NWS values.
T = Trace of Precipitation, MM = Missing Value Source: NWS Daily Summary

Daily Weather History Graph

Daily Weather History Graph

Search for Another Location

Airport:

Trip Planner

Search our weather history database for the weather conditions in past years. The results will help you decide how hot, cold, wet, or windy it might be!

Date:

Astronomy

Aug. 28, 2013 Rise Set
Actual Time 6:52 AM EDT 7:53 PM EDT
Civil Twilight 6:27 AM EDT 8:18 PM EDT
Nautical Twilight 5:56 AM EDT 8:49 PM EDT
Astronomical Twilight 5:24 AM EDT 9:20 PM EDT
Moon 12:06 AM EDT (8/28) 2:22 PM EDT (8/28)
Length of Visible Light 13h 51m
Length of Day
13h 00m
Waning Gibbous, 47% of the Moon is Illuminated
Aug 28
Waning Gibbous
Sep 5
New
Sep 12
First Quarter
Sep 19
Full
Sep 26
Last Quarter

Hourly Weather History & Observations

Time (EDT) Temp. Heat Index Dew Point Humidity Pressure Visibility Wind Dir Wind Speed Gust Speed Precip Events Conditions
12:15 AM 75.2 °F - 73.4 °F 94% 30.04 in 9.0 mi SSW 3.5 mph - 0.00 in   Clear
12:35 AM 73.4 °F - 73.4 °F 100% 30.04 in 9.0 mi Calm Calm - 0.00 in   Clear
12:55 AM 73.4 °F - 73.4 °F 100% 30.04 in 8.0 mi Calm Calm - 0.00 in   Clear
1:15 AM 71.6 °F - 71.6 °F 100% 30.03 in 5.0 mi Calm Calm - 0.00 in   Clear
1:35 AM 73.4 °F - 71.6 °F 94% 30.03 in 8.0 mi Calm Calm - 0.00 in   Clear
1:55 AM 73.4 °F - 71.6 °F 94% 30.02 in 8.0 mi Calm Calm - 0.00 in   Clear
2:15 AM 73.4 °F - 71.6 °F 94% 30.01 in 8.0 mi SSW 3.5 mph - 0.00 in   Clear
2:35 AM 73.4 °F - 71.6 °F 94% 30.01 in 7.0 mi Calm Calm - 0.00 in   Clear
2:55 AM 71.6 °F - 71.6 °F 100% 30.00 in 7.0 mi SSW 3.5 mph - 0.00 in   Clear
3:15 AM 71.6 °F - 71.6 °F 100% 30.00 in 7.0 mi Calm Calm - 0.00 in   Unknown
3:35 AM 71.6 °F - 71.6 °F 100% 30.00 in 7.0 mi Calm Calm - 0.00 in   Unknown
3:55 AM 69.8 °F - 69.8 °F 100% 30.00 in 5.0 mi Calm Calm - 0.00 in   Mist
4:15 AM 69.8 °F - 69.8 °F 100% 30.00 in 5.0 mi Calm Calm - 0.00 in   Mist
4:35 AM 69.8 °F - 69.8 °F 100% 30.00 in 5.0 mi Calm Calm - 0.00 in   Mist
4:55 AM 71.6 °F - 71.6 °F 100% 29.99 in 7.0 mi SW 4.6 mph - 0.00 in   Unknown
5:15 AM 71.6 °F - 71.6 °F 100% 30.00 in 7.0 mi SW 4.6 mph - 0.00 in   Unknown
5:35 AM 71.6 °F - 71.6 °F 100% 30.00 in 6.0 mi SW 3.5 mph - 0.00 in   Mist
5:55 AM 69.8 °F - 69.8 °F 100% 30.00 in 6.0 mi South 3.5 mph - 0.00 in   Mist
6:15 AM 69.8 °F - 69.8 °F 100% 30.00 in 5.0 mi South 4.6 mph - 0.00 in   Mist
6:35 AM 69.8 °F - 69.8 °F 100% 30.00 in 5.0 mi SSW 5.8 mph - 0.00 in   Mist
6:55 AM 69.8 °F - 69.8 °F 100% 30.01 in 5.0 mi SW 4.6 mph - 0.00 in   Mist
7:15 AM 69.8 °F - 69.8 °F 100% 30.02 in 4.0 mi Calm Calm - 0.00 in   Mist
7:35 AM 69.8 °F - 69.8 °F 100% 30.03 in 4.0 mi Calm Calm - 0.00 in   Mist
7:55 AM 69.8 °F - 69.8 °F 100% 30.03 in 5.0 mi SSW 4.6 mph - 0.00 in   Mist
8:15 AM 71.6 °F - 69.8 °F 94% 30.03 in 7.0 mi WSW 3.5 mph - 0.00 in   Unknown
8:35 AM 71.6 °F - 69.8 °F 94% 30.03 in 8.0 mi WSW 5.8 mph - 0.00 in   Unknown
8:55 AM 73.4 °F - 69.8 °F 88% 30.03 in 8.0 mi SW 4.6 mph - 0.00 in   Clear
9:15 AM 75.2 °F - 71.6 °F 89% 30.04 in 8.0 mi West 3.5 mph - 0.00 in   Clear
9:35 AM 77.0 °F - 71.6 °F 83% 30.03 in 10.0 mi West 3.5 mph - 0.00 in   Clear
9:55 AM 78.8 °F - 71.6 °F 78% 30.03 in 10.0 mi WSW 4.6 mph - 0.00 in   Clear
10:15 AM 78.8 °F - 71.6 °F 78% 30.03 in 10.0 mi WSW 3.5 mph - 0.00 in   Clear
10:35 AM 80.6 °F 84.6 °F 71.6 °F 74% 30.03 in 10.0 mi WSW 3.5 mph - 0.00 in   Clear
10:55 AM 82.4 °F 87.2 °F 71.6 °F 70% 30.04 in 10.0 mi Calm Calm - 0.00 in   Clear
11:15 AM 84.2 °F 90.9 °F 73.4 °F 70% 30.04 in 10.0 mi West 3.5 mph - 0.00 in   Clear
11:35 AM 84.2 °F 89.6 °F 71.6 °F 66% 30.04 in 10.0 mi Calm Calm - 0.00 in   Clear
11:55 AM 84.2 °F 90.9 °F 73.4 °F 70% 30.04 in 9.0 mi Calm Calm - 0.00 in   Clear
12:15 PM 87.8 °F 95.6 °F 73.4 °F 62% 30.04 in 10.0 mi WSW 5.8 mph - 0.00 in   Clear
12:35 PM 87.8 °F 93.8 °F 71.6 °F 58% 30.03 in 10.0 mi WSW 3.5 mph - 0.00 in   Clear
12:55 PM 87.8 °F 95.6 °F 73.4 °F 62% 30.03 in 10.0 mi Calm Calm - 0.00 in   Clear
1:15 PM 87.8 °F 93.8 °F 71.6 °F 58% 30.02 in 9.0 mi SW 6.9 mph - 0.00 in   Clear
1:35 PM 89.6 °F 98.2 °F 73.4 °F 59% 30.02 in 10.0 mi SW 6.9 mph - 0.00 in   Partly Cloudy
1:55 PM 89.6 °F 96.2 °F 71.6 °F 55% 30.02 in 10.0 mi WSW 6.9 mph - 0.00 in   Clear
2:15 PM 89.6 °F 96.2 °F 71.6 °F 55% 30.01 in 9.0 mi West 5.8 mph - 0.00 in   Clear
2:35 PM 89.6 °F 96.2 °F 71.6 °F 55% 30.01 in 10.0 mi WSW 8.1 mph - 0.00 in   Clear
2:55 PM 89.6 °F 96.2 °F 71.6 °F 55% 30.00 in 9.0 mi WSW 6.9 mph - 0.00 in   Partly Cloudy
3:15 PM 89.6 °F 96.2 °F 71.6 °F 55% 29.99 in 10.0 mi WSW 8.1 mph - 0.00 in   Clear
3:35 PM 89.6 °F 96.2 °F 71.6 °F 55% 29.98 in 10.0 mi WSW 8.1 mph - 0.00 in   Clear
3:55 PM 87.8 °F 93.8 °F 71.6 °F 58% 29.98 in 10.0 mi West 6.9 mph - 0.00 in   Clear
4:15 PM 87.8 °F 93.8 °F 71.6 °F 58% 29.98 in 10.0 mi West 4.6 mph - 0.00 in   Clear
4:35 PM 89.6 °F 96.2 °F 71.6 °F 55% 29.97 in 10.0 mi Calm Calm - 0.00 in   Clear
4:55 PM 89.6 °F 98.2 °F 73.4 °F 59% 29.97 in 10.0 mi West 6.9 mph - 0.00 in   Clear
5:15 PM 87.8 °F 95.6 °F 73.4 °F 62% 29.97 in 9.0 mi West 6.9 mph - 0.00 in   Clear
5:35 PM 87.8 °F 93.8 °F 71.6 °F 58% 29.97 in 10.0 mi West 9.2 mph - 0.00 in   Clear
5:55 PM 87.8 °F 93.8 °F 71.6 °F 58% 29.96 in 10.0 mi WSW 8.1 mph - 0.00 in   Clear
6:15 PM 87.8 °F 95.6 °F 73.4 °F 62% 29.96 in 10.0 mi WSW 4.6 mph - 0.00 in   Clear
6:35 PM 87.8 °F 95.6 °F 73.4 °F 62% 29.96 in 10.0 mi West 6.9 mph - 0.00 in   Clear
6:55 PM 87.8 °F 95.6 °F 73.4 °F 62% 29.96 in 10.0 mi West 5.8 mph - 0.00 in   Clear
7:15 PM 87.8 °F 95.6 °F 73.4 °F 62% 29.96 in 10.0 mi WSW 6.9 mph - 0.00 in   Clear
7:35 PM 86.0 °F 93.4 °F 73.4 °F 66% 29.96 in 10.0 mi WSW 5.8 mph - 0.00 in   Clear
7:55 PM 84.2 °F 90.9 °F 73.4 °F 70% 29.96 in 10.0 mi SW 3.5 mph - 0.00 in   Clear
8:15 PM 84.2 °F 90.9 °F 73.4 °F 70% 29.97 in 10.0 mi Calm Calm - 0.00 in   Clear
8:35 PM 82.4 °F 88.2 °F 73.4 °F 74% 29.97 in 10.0 mi WSW 3.5 mph - 0.00 in   Clear
8:55 PM 82.4 °F 88.2 °F 73.4 °F 74% 29.96 in 10.0 mi SSW 3.5 mph - 0.00 in   Clear
9:15 PM 82.4 °F 88.2 °F 73.4 °F 74% 29.96 in 10.0 mi SSW 3.5 mph - 0.00 in   Clear
9:35 PM 80.6 °F 85.4 °F 73.4 °F 79% 29.97 in 10.0 mi SSW 4.6 mph - 0.00 in   Clear
9:55 PM 80.6 °F 85.4 °F 73.4 °F 79% 29.98 in 10.0 mi SSW 3.5 mph - 0.00 in   Clear
10:15 PM 80.6 °F 85.4 °F 73.4 °F 79% 29.98 in 10.0 mi SW 3.5 mph - 0.00 in   Clear
10:35 PM 78.8 °F - 73.4 °F 83% 29.97 in 10.0 mi SSW 4.6 mph - 0.00 in   Clear
10:55 PM 78.8 °F - 73.4 °F 83% 29.97 in 10.0 mi SSW 4.6 mph - 0.00 in   Clear
11:15 PM 78.8 °F - 73.4 °F 83% 29.98 in 10.0 mi SSW 3.5 mph - 0.00 in   Clear
11:35 PM 77.0 °F - 73.4 °F 89% 29.98 in 9.0 mi SSW 4.6 mph - 0.00 in   Clear
11:55 PM 77.0 °F - 73.4 °F 89% 29.97 in 9.0 mi SSW 4.6 mph - 0.00 in   Clear